Location: El Limón
(10.3059°N, 67.6321°W)
Time: 13:08:42
(UTC+00:00)

Nadezhda 2 Rocket - Pass Details

Date: 18 December 2025
Orbit: 946 x 1011 km, 83.0° (Epoch: 12 January)

Event Time Altitude Azimuth Distance (km) Brightness Sun altitude
Rises 22:52:16 0° 353° (N) 3,606 7.3 -9.7°
Reaches altitude 10° 22:54:45 10° 351° (N) 2,664 6.7 -10.3°
Maximum altitude 23:00:48 74° 267° (W) 989 4.7 -11.6°
Drops below altitude 10° 23:06:57 10° 183° (S) 2,697 7.1 -13.0°
Sets 23:09:28 0° 181° (S) 3,652 7.8 -13.6°
